Baton Rouge, LA

8:36 PM CDT on April 21, 2018 (GMT -0500)
Baton Rouge Metro-Ryan

Weather History for KBTR - March, 2015

Change the Weather History Date:

Wednesday, March 25, 2015

  Actual Average Record
Temperature  
Mean Temperature 67 °F 63 °F  
Max Temperature 80 °F 75 °F 90 °F (1921)
Min Temperature 53 °F 52 °F 33 °F (1966)
Degree Days  
Heating Degree Days 0 4  
Month to date heating degree days 77 146  
Since 1 July heating degree days 1619 1481  
Cooling Degree Days 2 2  
Month to date cooling degree days 91 43  
Year to date cooling degree days 95 74  
Growing Degree Days 16 (Base 50)    
Moisture  
Dew Point 56 °F    
Average Humidity 73    
Maximum Humidity 100    
Minimum Humidity 45    
Precipitation  
Precipitation 0.00 in 0.15 in 1.76 in (1976)
Month to date precipitation 3.35 3.50  
Year to date precipitation 13.10 14.26  
Snow  
Snow 0.00 in - - ()
Month to date snowfall T  
Since 1 July snowfall T  
Snow Depth 0.00 in    
Sea Level Pressure  
Sea Level Pressure 30.03 in    
Wind  
Wind Speed 6 mph (East)    
Max Wind Speed 14 mph    
Max Gust Speed 18 mph    
Visibility 6 miles    
Events Fog    
T = Trace of Precipitation, MM = Missing Value Source: NWS Daily Summary

Daily Weather History Graph

Daily Weather History Graph

Search for Another Location

Airport or City:

Astronomy

Mar. 25, 2015 Rise Set
Actual Time 7:02 AM CDT 7:19 PM CDT
Civil Twilight 6:38 AM CDT 7:43 PM CDT
Nautical Twilight 6:10 AM CDT 8:11 PM CDT
Astronomical Twilight 5:42 AM CDT 8:39 PM CDT
Moon 11:06 AM CDT (3/25) 12:08 AM CDT (3/25)
Length of Visible Light 13h 04m
Length of Day
12h 16m
Waxing Crescent, 34% of the Moon is Illuminated
Mar 25
Waxing Crescent
Mar 27
First Quarter
Apr 4
Full
Apr 11
Last Quarter
Apr 18
New

Hourly Weather History & Observations

Time (CDT) Temp. Dew Point Humidity Pressure Visibility Wind Dir Wind Speed Gust Speed Precip Events Conditions
12:53 AM 64.0 °F 62.1 °F 93% 30.04 in 9.0 mi South 3.5 mph - N/A   Clear
1:53 AM 61.0 °F 59.0 °F 93% 30.04 in 6.0 mi Calm Calm - N/A   Clear
2:53 AM 59.0 °F 55.9 °F 90% 30.03 in 10.0 mi Calm Calm - N/A   Clear
3:53 AM 57.9 °F 55.9 °F 93% 30.03 in 5.0 mi Calm Calm - N/A   Clear
4:37 AM 55.0 °F 54.0 °F 96% 30.03 in 1.2 mi Calm Calm - N/A   Clear
4:42 AM 55.0 °F 54.0 °F 96% 30.04 in 0.8 mi Calm Calm - N/A   Mist
4:48 AM 55.4 °F 53.6 °F 94% 30.04 in 1.2 mi Calm Calm - N/A   Scattered Clouds
4:53 AM 55.0 °F 54.0 °F 96% 30.04 in 3.0 mi Calm Calm - N/A   Mostly Cloudy
5:53 AM 55.0 °F 54.0 °F 96% 30.04 in 1.0 mi ENE 3.5 mph - N/A   Overcast
6:09 AM 54.0 °F 54.0 °F 100% 30.04 in 0.2 mi ENE 3.5 mph - N/A Fog Fog
6:16 AM 54.0 °F 54.0 °F 100% 30.04 in 5.0 mi Calm Calm - N/A   Scattered Clouds
6:53 AM 54.0 °F 53.1 °F 97% 30.05 in 5.0 mi NE 3.5 mph - N/A   Scattered Clouds
6:55 AM 53.1 °F 53.1 °F 100% 30.05 in 2.0 mi NE 3.5 mph - N/A   Overcast
6:57 AM 53.1 °F 53.1 °F 100% 30.05 in 1.0 mi NE 4.6 mph - N/A   Mist
7:01 AM 53.1 °F 53.1 °F 100% 30.05 in 0.2 mi NE 4.6 mph - N/A Fog Fog
7:10 AM 54.0 °F 53.1 °F 97% 30.06 in 0.2 mi NNE 3.5 mph - N/A Fog Fog
7:30 AM 54.0 °F 53.1 °F 97% 30.07 in 2.0 mi NE 4.6 mph - N/A   Mist
7:51 AM 55.4 °F 55.4 °F 100% 30.07 in 2.0 mi ENE 4.6 mph - N/A   Clear
7:53 AM 55.9 °F 55.0 °F 97% 30.07 in 2.0 mi ENE 4.6 mph - N/A   Clear
8:28 AM 59.0 °F 57.9 °F 96% 30.09 in 3.0 mi NE 4.6 mph - N/A   Clear
8:53 AM 60.1 °F 59.0 °F 96% 30.09 in 7.0 mi ENE 4.6 mph - N/A   Clear
9:53 AM 66.0 °F 60.1 °F 81% 30.10 in 10.0 mi ENE 4.6 mph - N/A   Mostly Cloudy
10:53 AM 72.0 °F 59.0 °F 64% 30.10 in 10.0 mi Variable 3.5 mph - N/A   Mostly Cloudy
11:53 AM 71.6 °F 55.4 °F 57% 30.09 in 10.0 mi SSW 5.8 mph - N/A   Mostly Cloudy
12:53 PM 75.2 °F 55.4 °F 50% 30.07 in 10.0 mi SE 9.2 mph - N/A   Mostly Cloudy
1:53 PM 75.0 °F 55.9 °F 51% 30.04 in 10.0 mi Variable 6.9 mph - N/A   Mostly Cloudy
2:53 PM 77.0 °F 55.0 °F 47% 30.01 in 10.0 mi East 6.9 mph - N/A   Scattered Clouds
3:53 PM 79.0 °F 57.0 °F 47% 29.99 in 10.0 mi East 10.4 mph - N/A   Scattered Clouds
4:53 PM 78.1 °F 55.9 °F 46% 29.98 in 10.0 mi SSE 11.5 mph - N/A   Scattered Clouds
5:53 PM 75.9 °F 57.0 °F 52% 29.97 in 10.0 mi ESE 8.1 mph - N/A   Scattered Clouds
6:53 PM 73.0 °F 57.9 °F 59% 29.97 in 10.0 mi ESE 8.1 mph - N/A   Partly Cloudy
7:53 PM 71.1 °F 57.9 °F 63% 29.96 in 10.0 mi SE 5.8 mph - N/A   Scattered Clouds
8:53 PM 69.1 °F 57.9 °F 68% 29.97 in 10.0 mi SE 4.6 mph - N/A   Clear
9:53 PM 68.0 °F 57.0 °F 68% 29.97 in 10.0 mi SE 5.8 mph - N/A   Clear
10:53 PM 68.0 °F 57.9 °F 70% 29.97 in 10.0 mi SSE 8.1 mph - N/A   Partly Cloudy
11:53 PM 68.0 °F 59.0 °F 73% 29.94 in 10.0 mi SSE 9.2 mph - N/A   Clear